Time,TemperatureF,DewpointF,PressureIn,WindDirection,WindDirectionDegrees,WindSpeedMPH,WindSpeedGustMPH,Humidity,HourlyPrecipIn,Conditions,Clouds,dailyrainin,SoftwareType,DateUTC
2013-04-18 00:00:00,35.5,11.1,30.34,WSW,248,0.0,0.0,36,0.00,,,0.00,Wunderground v.1.15,2013-04-18 07:00:00,
2013-04-18 00:05:00,35.5,11.8,30.34,SW,226,0.0,0.0,37,0.00,,,0.00,Wunderground v.1.15,2013-04-18 07:05:00,
2013-04-18 00:10:00,36.1,11.7,30.34,SW,223,0.0,0.0,36,0.00,,,0.00,Wunderground v.1.15,2013-04-18 07:10:00,
2013-04-18 00:17:00,35.7,12.5,30.34,WSW,238,0.0,0.0,38,0.00,,,0.00,Wunderground v.1.15,2013-04-18 07:17:00,
2013-04-18 00:22:00,36.2,13.0,30.34,WSW,252,0.0,0.0,38,0.00,,,0.00,Wunderground v.1.15,2013-04-18 07:22:00,
2013-04-18 00:28:00,35.5,11.8,30.34,WSW,242,0.0,0.0,37,0.00,,,0.00,Wunderground v.1.15,2013-04-18 07:28:00,
2013-04-18 00:34:00,34.6,12.7,30.34,SW,221,0.0,0.0,40,0.00,,,0.00,Wunderground v.1.15,2013-04-18 07:34:00,
2013-04-18 00:39:00,34.4,13.1,30.34,SSW,203,0.0,0.0,41,0.00,,,0.00,Wunderground v.1.15,2013-04-18 07:39:00,
2013-04-18 00:45:00,34.6,14.4,30.35,SW,223,0.0,0.0,43,0.00,,,0.00,Wunderground v.1.15,2013-04-18 07:45:00,
2013-04-18 00:51:00,35.1,15.9,30.34,WSW,242,0.0,0.0,45,0.00,,,0.00,Wunderground v.1.15,2013-04-18 07:51:00,
2013-04-18 00:57:00,35.1,16.9,30.34,WSW,238,0.0,0.0,47,0.00,,,0.00,Wunderground v.1.15,2013-04-18 07:57:00,
2013-04-18 01:03:00,35.4,17.6,30.34,SW,225,0.0,0.0,48,0.00,,,0.00,Wunderground v.1.15,2013-04-18 08:03:00,
2013-04-18 01:09:00,35.2,17.0,30.34,SW,231,0.0,0.0,47,0.00,,,0.00,Wunderground v.1.15,2013-04-18 08:09:00,
2013-04-18 01:14:00,35.5,16.2,30.34,SW,230,0.0,0.0,45,0.00,,,0.00,Wunderground v.1.15,2013-04-18 08:14:00,
2013-04-18 01:20:00,35.6,15.8,30.34,SW,229,0.0,0.0,44,0.00,,,0.00,Wunderground v.1.15,2013-04-18 08:20:00,
2013-04-18 01:26:00,35.3,16.6,30.34,West,271,0.0,0.0,46,0.00,,,0.00,Wunderground v.1.15,2013-04-18 08:26:00,
2013-04-18 01:32:00,35.3,18.0,30.34,WSW,253,0.0,0.0,49,0.00,,,0.00,Wunderground v.1.15,2013-04-18 08:32:00,
2013-04-18 01:38:00,35.2,16.5,30.34,WSW,252,0.0,0.0,46,0.00,,,0.00,Wunderground v.1.15,2013-04-18 08:38:00,
2013-04-18 01:43:00,34.8,14.5,30.34,West,276,0.0,0.0,43,0.00,,,0.00,Wunderground v.1.15,2013-04-18 08:43:00,
2013-04-18 01:49:00,34.2,12.9,30.34,West,271,0.0,0.0,41,0.00,,,0.00,Wunderground v.1.15,2013-04-18 08:49:00,
2013-04-18 01:55:00,33.6,11.8,30.34,West,269,0.0,0.0,40,0.00,,,0.00,Wunderground v.1.15,2013-04-18 08:55:00,
2013-04-18 02:00:00,33.2,12.0,30.34,West,267,0.0,0.0,41,0.00,,,0.00,Wunderground v.1.15,2013-04-18 09:00:00,
2013-04-18 02:06:00,33.1,11.9,30.34,West,265,0.0,2.0,41,0.00,,,0.00,Wunderground v.1.15,2013-04-18 09:06:00,
2013-04-18 02:12:00,32.8,12.2,30.34,WSW,248,1.0,1.0,42,0.00,,,0.00,Wunderground v.1.15,2013-04-18 09:12:00,
2013-04-18 02:18:00,32.4,12.4,30.34,WSW,252,1.0,1.0,43,0.00,,,0.00,Wunderground v.1.15,2013-04-18 09:18:00,
2013-04-18 02:23:00,32.5,12.5,30.35,WSW,250,1.0,2.0,43,0.00,,,0.00,Wunderground v.1.15,2013-04-18 09:23:00,
2013-04-18 02:29:00,32.7,12.6,30.34,WSW,248,1.0,2.0,43,0.00,,,0.00,Wunderground v.1.15,2013-04-18 09:29:00,
2013-04-18 02:34:00,33.0,12.9,30.34,WSW,243,0.0,1.0,43,0.00,,,0.00,Wunderground v.1.15,2013-04-18 09:34:00,
2013-04-18 02:39:00,33.3,13.2,30.34,WSW,251,0.0,1.0,43,0.00,,,0.00,Wunderground v.1.15,2013-04-18 09:39:00,
2013-04-18 02:45:00,33.3,12.6,30.34,WSW,247,0.0,0.0,42,0.00,,,0.00,Wunderground v.1.15,2013-04-18 09:45:00,
2013-04-18 02:51:00,32.7,13.2,30.34,SW,230,0.0,0.0,44,0.00,,,0.00,Wunderground v.1.15,2013-04-18 09:51:00,
2013-04-18 02:56:00,32.6,15.1,30.34,SW,236,0.0,0.0,48,0.00,,,0.00,Wunderground v.1.15,2013-04-18 09:56:00,
2013-04-18 03:01:00,32.5,15.4,30.34,SW,234,0.0,0.0,49,0.00,,,0.00,Wunderground v.1.15,2013-04-18 10:01:00,
2013-04-18 03:07:00,32.5,16.8,30.34,WSW,241,0.0,0.0,52,0.00,,,0.00,Wunderground v.1.15,2013-04-18 10:07:00,
2013-04-18 03:13:00,32.2,17.0,30.34,WSW,238,0.0,0.0,53,0.00,,,0.00,Wunderground v.1.15,2013-04-18 10:13:00,
2013-04-18 03:19:00,32.1,16.9,30.34,SW,224,0.0,0.0,53,0.00,,,0.00,Wunderground v.1.15,2013-04-18 10:19:00,
2013-04-18 03:25:00,32.3,16.6,30.34,SW,214,0.0,0.0,52,0.00,,,0.00,Wunderground v.1.15,2013-04-18 10:25:00,
2013-04-18 03:30:00,33.5,15.9,30.34,WSW,247,0.0,0.0,48,0.00,,,0.00,Wunderground v.1.15,2013-04-18 10:30:00,
2013-04-18 03:35:00,33.8,16.2,30.34,WSW,239,0.0,0.0,48,0.00,,,0.00,Wunderground v.1.15,2013-04-18 10:35:00,
2013-04-18 03:41:00,33.4,15.8,30.34,WSW,254,0.0,0.0,48,0.00,,,0.00,Wunderground v.1.15,2013-04-18 10:41:00,
2013-04-18 03:47:00,32.4,14.9,30.34,West,259,0.0,0.0,48,0.00,,,0.00,Wunderground v.1.15,2013-04-18 10:47:00,
2013-04-18 03:53:00,31.4,13.5,30.34,WSW,257,0.0,0.0,47,0.00,,,0.00,Wunderground v.1.15,2013-04-18 10:53:00,
2013-04-18 03:59:00,31.0,13.1,30.34,West,262,0.0,0.0,47,0.00,,,0.00,Wunderground v.1.15,2013-04-18 10:59:00,
2013-04-18 04:05:00,30.8,12.9,30.34,West,266,0.0,0.0,47,0.00,,,0.00,Wunderground v.1.15,2013-04-18 11:05:00,
2013-04-18 04:10:00,31.3,12.9,30.34,WSW,257,0.0,0.0,46,0.00,,,0.00,Wunderground v.1.15,2013-04-18 11:10:00,
2013-04-18 04:16:00,30.9,12.5,30.34,WSW,246,0.0,0.0,46,0.00,,,0.00,Wunderground v.1.15,2013-04-18 11:16:00,
2013-04-18 04:22:00,31.4,13.0,30.34,WSW,243,0.0,0.0,46,0.00,,,0.00,Wunderground v.1.15,2013-04-18 11:22:00,
2013-04-18 04:28:00,32.2,12.7,30.34,WSW,242,0.0,0.0,44,0.00,,,0.00,Wunderground v.1.15,2013-04-18 11:28:00,
2013-04-18 04:34:00,32.7,12.6,30.34,SW,225,0.0,0.0,43,0.00,,,0.00,Wunderground v.1.15,2013-04-18 11:34:00,
2013-04-18 04:40:00,32.4,12.9,30.34,SW,229,0.0,0.0,44,0.00,,,0.00,Wunderground v.1.15,2013-04-18 11:40:00,
2013-04-18 04:46:00,32.4,13.9,30.35,SW,226,0.0,0.0,46,0.00,,,0.00,Wunderground v.1.15,2013-04-18 11:46:00,
2013-04-18 04:52:00,32.0,12.5,30.35,West,259,0.0,0.0,44,0.00,,,0.00,Wunderground v.1.15,2013-04-18 11:52:00,
2013-04-18 04:58:00,30.7,11.8,30.35,West,281,0.0,0.0,45,0.00,,,0.00,Wunderground v.1.15,2013-04-18 11:58:00,
2013-04-18 05:03:00,29.8,12.0,30.35,West,273,0.0,0.0,47,0.00,,,0.00,Wunderground v.1.15,2013-04-18 12:03:00,
2013-04-18 05:09:00,29.2,11.9,30.35,WSW,251,0.0,0.0,48,0.00,,,0.00,Wunderground v.1.15,2013-04-18 12:09:00,
2013-04-18 05:14:00,29.2,12.8,30.36,WSW,255,1.0,3.0,50,0.00,,,0.00,Wunderground v.1.15,2013-04-18 12:14:00,
2013-04-18 05:19:00,29.8,13.4,30.36,WSW,257,1.0,3.0,50,0.00,,,0.00,Wunderground v.1.15,2013-04-18 12:19:00,
2013-04-18 05:25:00,30.0,13.6,30.36,West,262,0.0,1.0,50,0.00,,,0.00,Wunderground v.1.15,2013-04-18 12:25:00,
2013-04-18 05:31:00,29.8,13.4,30.36,West,277,0.0,0.0,50,0.00,,,0.00,Wunderground v.1.15,2013-04-18 12:31:00,
2013-04-18 05:37:00,30.6,13.2,30.36,WSW,247,0.0,0.0,48,0.00,,,0.00,Wunderground v.1.15,2013-04-18 12:37:00,
2013-04-18 05:43:00,31.2,12.8,30.36,NW,312,0.0,0.0,46,0.00,,,0.00,Wunderground v.1.15,2013-04-18 12:43:00,
2013-04-18 05:48:00,31.8,13.8,30.36,WSW,250,0.0,0.0,47,0.00,,,0.00,Wunderground v.1.15,2013-04-18 12:48:00,
2013-04-18 05:54:00,30.9,13.5,30.36,WSW,247,0.0,0.0,48,0.00,,,0.00,Wunderground v.1.15,2013-04-18 12:54:00,
2013-04-18 06:00:00,31.4,13.5,30.36,West,264,0.0,0.0,47,0.00,,,0.00,Wunderground v.1.15,2013-04-18 13:00:00,
2013-04-18 06:05:00,31.4,13.5,30.37,West,264,0.0,0.0,47,0.00,,,0.00,Wunderground v.1.15,2013-04-18 13:05:00,
2013-04-18 06:10:00,-999.9,-99.9,30.37,North,32767,-999.0,0.0,255,-99.99,,,0.00,Wunderground v.1.15,2013-04-18 13:10:00,
2013-04-18 06:16:00,-999.9,-99.9,30.36,North,32767,-999.0,0.0,255,-99.99,,,0.00,Wunderground v.1.15,2013-04-18 13:16:00,
2013-04-18 06:22:00,-999.9,-99.9,30.36,North,32767,-999.0,0.0,255,-99.99,,,0.00,Wunderground v.1.15,2013-04-18 13:22:00,
2013-04-18 06:27:00,-999.9,-99.9,30.36,North,32767,-999.0,0.0,255,-99.99,,,0.00,Wunderground v.1.15,2013-04-18 13:27:00,
2013-04-18 06:32:00,-999.9,-99.9,30.36,North,32767,-999.0,0.0,255,-99.99,,,0.00,Wunderground v.1.15,2013-04-18 13:32:00,
2013-04-18 06:38:00,-999.9,-99.9,30.36,North,32767,-999.0,0.0,255,-99.99,,,0.00,Wunderground v.1.15,2013-04-18 13:38:00,
2013-04-18 06:44:00,-999.9,-99.9,30.36,North,32767,-999.0,0.0,255,-99.99,,,0.00,Wunderground v.1.15,2013-04-18 13:44:00,
2013-04-18 06:50:00,-999.9,-99.9,30.36,North,32767,-999.0,0.0,255,-99.99,,,0.00,Wunderground v.1.15,2013-04-18 13:50:00,
2013-04-18 06:55:00,-999.9,-99.9,30.36,North,32767,-999.0,0.0,255,-99.99,,,0.00,Wunderground v.1.15,2013-04-18 13:55:00,
2013-04-18 07:01:00,-999.9,-99.9,30.37,North,32767,-999.0,0.0,255,-99.99,,,0.00,Wunderground v.1.15,2013-04-18 14:01:00,
2013-04-18 07:07:00,-999.9,-99.9,30.37,North,32767,-999.0,0.0,255,-99.99,,,0.00,Wunderground v.1.15,2013-04-18 14:07:00,
2013-04-18 07:13:00,-999.9,-99.9,30.37,North,32767,-999.0,0.0,255,-99.99,,,0.00,Wunderground v.1.15,2013-04-18 14:13:00,
2013-04-18 07:19:00,33.7,16.1,30.37,West,259,0.0,0.0,48,0.00,,,0.00,Wunderground v.1.15,2013-04-18 14:19:00,
2013-04-18 07:25:00,34.5,16.3,30.38,WSW,258,0.0,0.0,47,0.00,,,0.00,Wunderground v.1.15,2013-04-18 14:25:00,
2013-04-18 07:32:00,35.4,16.1,30.38,WSW,248,0.0,0.0,45,0.00,,,0.00,Wunderground v.1.15,2013-04-18 14:32:00,
2013-04-18 07:38:00,36.2,16.4,30.38,West,262,0.0,0.0,44,0.00,,,0.00,Wunderground v.1.15,2013-04-18 14:38:00,
2013-04-18 07:44:00,36.9,15.9,30.39,West,271,0.0,0.0,42,0.00,,,0.00,Wunderground v.1.15,2013-04-18 14:44:00,
2013-04-18 07:50:00,37.4,15.8,30.39,WSW,255,0.0,0.0,41,0.00,,,0.00,Wunderground v.1.15,2013-04-18 14:50:00,
2013-04-18 07:55:00,38.1,16.4,30.39,West,275,0.0,0.0,41,0.00,,,0.00,Wunderground v.1.15,2013-04-18 14:55:00,
2013-04-18 08:00:00,38.7,15.8,30.39,West,279,0.0,0.0,39,0.00,,,0.00,Wunderground v.1.15,2013-04-18 15:00:00,
2013-04-18 08:07:00,39.4,16.5,30.40,West,272,0.0,0.0,39,0.00,,,0.00,Wunderground v.1.15,2013-04-18 15:07:00,
2013-04-18 08:13:00,39.8,16.2,30.40,NW,304,0.0,0.0,38,0.00,,,0.00,Wunderground v.1.15,2013-04-18 15:13:00,
2013-04-18 08:19:00,40.0,16.4,30.40,WSW,252,0.0,0.0,38,0.00,,,0.00,Wunderground v.1.15,2013-04-18 15:19:00,
2013-04-18 08:24:00,40.5,16.9,30.40,West,267,0.0,0.0,38,0.00,,,0.00,Wunderground v.1.15,2013-04-18 15:24:00,
2013-04-18 08:30:00,40.9,16.0,30.40,West,262,0.0,0.0,36,0.00,,,0.00,Wunderground v.1.15,2013-04-18 15:30:00,
2013-04-18 08:37:00,41.5,15.2,30.40,West,260,0.0,0.0,34,0.00,,,0.00,Wunderground v.1.15,2013-04-18 15:37:00,
2013-04-18 08:43:00,42.3,15.2,30.40,WSW,241,0.0,0.0,33,0.00,,,0.00,Wunderground v.1.15,2013-04-18 15:43:00,
2013-04-18 08:49:00,42.8,14.2,30.40,WSW,257,0.0,0.0,31,0.00,,,0.00,Wunderground v.1.15,2013-04-18 15:49:00,
2013-04-18 08:55:00,43.6,14.9,30.40,WSW,253,0.0,0.0,31,0.00,,,0.00,Wunderground v.1.15,2013-04-18 15:55:00,
2013-04-18 09:00:00,44.8,15.2,30.40,WSW,258,0.0,0.0,30,0.00,,,0.00,Wunderground v.1.15,2013-04-18 16:00:00,
2013-04-18 09:06:00,45.5,14.2,30.40,East,100,0.0,0.0,28,0.00,,,0.00,Wunderground v.1.15,2013-04-18 16:06:00,
2013-04-18 09:12:00,44.8,12.8,30.40,NNE,21,0.0,0.0,27,0.00,,,0.00,Wunderground v.1.15,2013-04-18 16:12:00,
2013-04-18 09:18:00,44.3,12.4,30.40,NW,311,0.0,0.0,27,0.00,,,0.00,Wunderground v.1.15,2013-04-18 16:18:00,
2013-04-18 09:24:00,44.7,11.9,30.40,NW,315,0.0,0.0,26,0.00,,,0.00,Wunderground v.1.15,2013-04-18 16:24:00,
2013-04-18 09:29:00,44.7,11.9,30.40,North,356,0.0,0.0,26,0.00,,,0.00,Wunderground v.1.15,2013-04-18 16:29:00,
2013-04-18 09:35:00,45.3,11.5,30.40,NW,326,0.0,0.0,25,0.00,,,0.00,Wunderground v.1.15,2013-04-18 16:35:00,
2013-04-18 09:42:00,45.3,11.5,30.40,East,93,0.0,0.0,25,0.00,,,0.00,Wunderground v.1.15,2013-04-18 16:42:00,
2013-04-18 09:48:00,45.7,10.9,30.40,NNE,20,0.0,0.0,24,0.00,,,0.00,Wunderground v.1.15,2013-04-18 16:48:00,
2013-04-18 09:54:00,45.7,10.9,30.40,NE,46,0.0,0.0,24,0.00,,,0.00,Wunderground v.1.15,2013-04-18 16:54:00,
2013-04-18 10:00:00,46.1,10.3,30.40,NNE,23,0.0,0.0,23,0.00,,,0.00,Wunderground v.1.15,2013-04-18 17:00:00,
2013-04-18 10:06:00,45.9,10.1,30.40,WNW,283,0.0,0.0,23,0.00,,,0.00,Wunderground v.1.15,2013-04-18 17:06:00,
2013-04-18 10:12:00,46.8,10.9,30.40,North,8,0.0,0.0,23,0.00,,,0.00,Wunderground v.1.15,2013-04-18 17:12:00,
2013-04-18 10:18:00,47.0,11.1,30.39,NNE,13,0.0,0.0,23,0.00,,,0.00,Wunderground v.1.15,2013-04-18 17:18:00,
2013-04-18 10:24:00,47.5,10.5,30.40,North,11,0.0,0.0,22,0.00,,,0.00,Wunderground v.1.15,2013-04-18 17:24:00,
2013-04-18 10:30:00,47.6,9.5,30.40,NNE,30,0.0,0.0,21,0.00,,,0.00,Wunderground v.1.15,2013-04-18 17:30:00,
2013-04-18 10:35:00,47.5,9.4,30.39,NW,316,0.0,0.0,21,0.00,,,0.00,Wunderground v.1.15,2013-04-18 17:35:00,
2013-04-18 10:41:00,47.7,9.6,30.39,NNE,31,0.0,0.0,21,0.00,,,0.00,Wunderground v.1.15,2013-04-18 17:41:00,
2013-04-18 10:47:00,47.7,9.6,30.39,North,353,0.0,0.0,21,0.00,,,0.00,Wunderground v.1.15,2013-04-18 17:47:00,
2013-04-18 10:53:00,48.3,9.0,30.39,NNE,15,0.0,0.0,20,0.00,,,0.00,Wunderground v.1.15,2013-04-18 17:53:00,
2013-04-18 10:58:00,48.4,9.1,30.38,NW,314,0.0,0.0,20,0.00,,,0.00,Wunderground v.1.15,2013-04-18 17:58:00,
2013-04-18 11:04:00,48.2,8.9,30.38,NNE,26,0.0,0.0,20,0.00,,,0.00,Wunderground v.1.15,2013-04-18 18:04:00,
2013-04-18 11:10:00,48.3,9.0,30.38,NNE,14,0.0,0.0,20,0.00,,,0.00,Wunderground v.1.15,2013-04-18 18:10:00,
2013-04-18 11:16:00,48.6,9.3,30.38,NE,53,0.0,0.0,20,0.00,,,0.00,Wunderground v.1.15,2013-04-18 18:16:00,
2013-04-18 11:22:00,49.1,9.7,30.38,SSW,212,0.0,0.0,20,0.00,,,0.00,Wunderground v.1.15,2013-04-18 18:22:00,
2013-04-18 11:28:00,50.1,9.4,30.38,South,175,0.0,0.0,19,0.00,,,0.00,Wunderground v.1.15,2013-04-18 18:28:00,
2013-04-18 11:33:00,50.3,9.5,30.38,ENE,69,0.0,0.0,19,0.00,,,0.00,Wunderground v.1.15,2013-04-18 18:33:00,
2013-04-18 11:39:00,50.2,9.5,30.38,NNE,17,0.0,0.0,19,0.00,,,0.00,Wunderground v.1.15,2013-04-18 18:39:00,
2013-04-18 11:45:00,50.3,8.3,30.38,NNW,333,0.0,0.0,18,0.00,,,0.00,Wunderground v.1.15,2013-04-18 18:45:00,
2013-04-18 11:51:00,50.6,8.6,30.38,NW,307,0.0,0.0,18,0.00,,,0.00,Wunderground v.1.15,2013-04-18 18:51:00,
2013-04-18 11:56:00,50.8,8.7,30.38,WSW,247,0.0,0.0,18,0.00,,,0.00,Wunderground v.1.15,2013-04-18 18:56:00,
2013-04-18 12:02:00,51.1,9.0,30.38,WSW,237,0.0,0.0,18,0.00,,,0.00,Wunderground v.1.15,2013-04-18 19:02:00,
2013-04-18 12:07:00,51.7,9.5,30.38,NW,315,0.0,0.0,18,0.00,,,0.00,Wunderground v.1.15,2013-04-18 19:07:00,
2013-04-18 12:13:00,52.3,10.0,30.38,NE,52,0.0,0.0,18,0.00,,,0.00,Wunderground v.1.15,2013-04-18 19:13:00,
2013-04-18 12:19:00,52.1,11.0,30.37,NNW,328,0.0,0.0,19,0.00,,,0.00,Wunderground v.1.15,2013-04-18 19:19:00,
2013-04-18 12:25:00,51.7,10.7,30.37,NE,55,0.0,0.0,19,0.00,,,0.00,Wunderground v.1.15,2013-04-18 19:25:00,
2013-04-18 12:32:00,51.9,10.9,30.37,SSW,209,0.0,0.0,19,0.00,,,0.00,Wunderground v.1.15,2013-04-18 19:32:00,
2013-04-18 12:38:00,52.9,10.5,30.37,SSE,148,0.0,0.0,18,0.00,,,0.00,Wunderground v.1.15,2013-04-18 19:38:00,
2013-04-18 12:44:00,53.1,10.6,30.37,NW,307,0.0,0.0,18,0.00,,,0.00,Wunderground v.1.15,2013-04-18 19:44:00,
2013-04-18 12:50:00,53.7,11.1,30.36,NNW,338,0.0,0.0,18,0.00,,,0.00,Wunderground v.1.15,2013-04-18 19:50:00,
2013-04-18 12:56:00,53.1,10.6,30.36,North,359,0.0,0.0,18,0.00,,,0.00,Wunderground v.1.15,2013-04-18 19:56:00,
2013-04-18 13:01:00,52.9,10.5,30.36,WSW,251,0.0,0.0,18,0.00,,,0.00,Wunderground v.1.15,2013-04-18 20:01:00,
2013-04-18 13:07:00,53.2,10.7,30.36,WSW,249,0.0,0.0,18,0.00,,,0.00,Wunderground v.1.15,2013-04-18 20:07:00,
2013-04-18 13:13:00,53.8,11.2,30.36,North,6,0.0,0.0,18,0.00,,,0.00,Wunderground v.1.15,2013-04-18 20:13:00,
2013-04-18 13:19:00,53.6,11.0,30.36,WSW,240,0.0,0.0,18,0.00,,,0.00,Wunderground v.1.15,2013-04-18 20:19:00,
2013-04-18 13:25:00,53.7,11.1,30.35,NNW,338,0.0,0.0,18,0.00,,,0.00,Wunderground v.1.15,2013-04-18 20:25:00,
2013-04-18 13:30:00,53.7,11.1,30.35,NE,53,0.0,0.0,18,0.00,,,0.00,Wunderground v.1.15,2013-04-18 20:30:00,
2013-04-18 13:36:00,53.6,9.8,30.35,NNW,330,0.0,0.0,17,0.00,,,0.00,Wunderground v.1.15,2013-04-18 20:36:00,
2013-04-18 13:42:00,53.7,11.1,30.35,NNW,335,0.0,0.0,18,0.00,,,0.00,Wunderground v.1.15,2013-04-18 20:42:00,
2013-04-18 13:48:00,54.5,10.5,30.35,NNE,28,0.0,0.0,17,0.00,,,0.00,Wunderground v.1.15,2013-04-18 20:48:00,
2013-04-18 13:54:00,54.0,10.1,30.35,ENE,69,0.0,0.0,17,0.00,,,0.00,Wunderground v.1.15,2013-04-18 20:54:00,
2013-04-18 14:00:00,54.0,10.1,30.35,SSE,162,0.0,0.0,17,0.00,,,0.00,Wunderground v.1.15,2013-04-18 21:00:00,
2013-04-18 14:06:00,54.7,10.7,30.35,ESE,122,0.0,0.0,17,0.00,,,0.00,Wunderground v.1.15,2013-04-18 21:06:00,
2013-04-18 14:12:00,54.6,10.6,30.34,SE,141,0.0,0.0,17,0.00,,,0.00,Wunderground v.1.15,2013-04-18 21:12:00,
2013-04-18 14:18:00,55.1,11.0,30.34,NE,34,0.0,0.0,17,0.00,,,0.00,Wunderground v.1.15,2013-04-18 21:18:00,
2013-04-18 14:23:00,54.8,10.7,30.34,NNW,344,0.0,0.0,17,0.00,,,0.00,Wunderground v.1.15,2013-04-18 21:23:00,
2013-04-18 14:28:00,55.1,11.0,30.34,WNW,299,0.0,0.0,17,0.00,,,0.00,Wunderground v.1.15,2013-04-18 21:28:00,
2013-04-18 14:34:00,55.4,11.2,30.34,NNW,345,0.0,0.0,17,0.00,,,0.00,Wunderground v.1.15,2013-04-18 21:34:00,
2013-04-18 14:40:00,55.8,11.6,30.34,WSW,257,0.0,0.0,17,0.00,,,0.00,Wunderground v.1.15,2013-04-18 21:40:00,
2013-04-18 14:46:00,56.1,11.8,30.33,SE,127,0.0,0.0,17,0.00,,,0.00,Wunderground v.1.15,2013-04-18 21:46:00,
2013-04-18 14:51:00,56.4,12.1,30.33,WNW,293,0.0,0.0,17,0.00,,,0.00,Wunderground v.1.15,2013-04-18 21:51:00,
2013-04-18 14:57:00,57.0,11.2,30.33,NNW,339,0.0,0.0,16,0.00,,,0.00,Wunderground v.1.15,2013-04-18 21:57:00,
2013-04-18 15:03:00,56.3,10.6,30.32,NNE,23,0.0,0.0,16,0.00,,,0.00,Wunderground v.1.15,2013-04-18 22:03:00,
2013-04-18 15:09:00,55.9,11.6,30.32,NNW,333,0.0,0.0,17,0.00,,,0.00,Wunderground v.1.15,2013-04-18 22:09:00,
2013-04-18 15:14:00,55.9,11.6,30.32,NW,312,0.0,0.0,17,0.00,,,0.00,Wunderground v.1.15,2013-04-18 22:14:00,
2013-04-18 15:20:00,56.0,11.7,30.32,West,274,0.0,0.0,17,0.00,,,0.00,Wunderground v.1.15,2013-04-18 22:20:00,
2013-04-18 15:25:00,56.6,12.2,30.32,West,260,0.0,0.0,17,0.00,,,0.00,Wunderground v.1.15,2013-04-18 22:25:00,
2013-04-18 15:31:00,56.7,10.9,30.31,West,265,0.0,0.0,16,0.00,,,0.00,Wunderground v.1.15,2013-04-18 22:31:00,
2013-04-18 15:37:00,56.8,12.4,30.31,NNE,31,0.0,0.0,17,0.00,,,0.00,Wunderground v.1.15,2013-04-18 22:37:00,
2013-04-18 15:43:00,57.1,12.6,30.31,SW,218,0.0,0.0,17,0.00,,,0.00,Wunderground v.1.15,2013-04-18 22:43:00,
2013-04-18 15:49:00,58.0,12.0,30.31,NW,312,0.0,0.0,16,0.00,,,0.00,Wunderground v.1.15,2013-04-18 22:49:00,
2013-04-18 15:54:00,57.7,11.7,30.31,West,267,0.0,0.0,16,0.00,,,0.00,Wunderground v.1.15,2013-04-18 22:54:00,
2013-04-18 16:00:00,57.6,11.7,30.30,NNW,336,0.0,0.0,16,0.00,,,0.00,Wunderground v.1.15,2013-04-18 23:00:00,
2013-04-18 16:06:00,57.6,13.0,30.30,NNW,343,0.0,0.0,17,0.00,,,0.00,Wunderground v.1.15,2013-04-18 23:06:00,
2013-04-18 16:12:00,57.7,11.7,30.30,NW,316,0.0,0.0,16,0.00,,,0.00,Wunderground v.1.15,2013-04-18 23:12:00,
2013-04-18 16:17:00,57.4,11.5,30.29,NE,36,0.0,0.0,16,0.00,,,0.00,Wunderground v.1.15,2013-04-18 23:17:00,
2013-04-18 16:23:00,58.1,12.1,30.30,West,273,0.0,0.0,16,0.00,,,0.00,Wunderground v.1.15,2013-04-18 23:23:00,
2013-04-18 16:29:00,58.6,12.5,30.29,WNW,282,0.0,0.0,16,0.00,,,0.00,Wunderground v.1.15,2013-04-18 23:29:00,
2013-04-18 16:35:00,58.2,12.1,30.29,NNW,346,0.0,0.0,16,0.00,,,0.00,Wunderground v.1.15,2013-04-18 23:35:00,
2013-04-18 16:41:00,58.2,12.1,30.29,WNW,294,0.0,0.0,16,0.00,,,0.00,Wunderground v.1.15,2013-04-18 23:41:00,
2013-04-18 16:47:00,58.6,12.5,30.28,NNE,23,0.0,0.0,16,0.00,,,0.00,Wunderground v.1.15,2013-04-18 23:47:00,
2013-04-18 16:53:00,58.3,12.2,30.28,North,356,0.0,0.0,16,0.00,,,0.00,Wunderground v.1.15,2013-04-18 23:53:00,
2013-04-18 16:58:00,58.0,12.0,30.28,ENE,58,0.0,0.0,16,0.00,,,0.00,Wunderground v.1.15,2013-04-18 23:58:00,
2013-04-18 17:04:00,58.5,12.4,30.28,NNE,28,0.0,0.0,16,0.00,,,0.00,Wunderground v.1.15,2013-04-19 00:04:00,
2013-04-18 17:10:00,58.6,12.5,30.28,NNE,17,0.0,0.0,16,0.00,,,0.00,Wunderground v.1.15,2013-04-19 00:10:00,
2013-04-18 17:16:00,58.6,12.5,30.27,NE,56,0.0,0.0,16,0.00,,,0.00,Wunderground v.1.15,2013-04-19 00:16:00,
2013-04-18 17:21:00,58.2,12.1,30.27,ESE,117,0.0,0.0,16,0.00,,,0.00,Wunderground v.1.15,2013-04-19 00:21:00,
2013-04-18 17:27:00,58.2,12.1,30.27,NNE,30,0.0,0.0,16,0.00,,,0.00,Wunderground v.1.15,2013-04-19 00:27:00,
2013-04-18 17:33:00,58.3,12.2,30.27,NE,49,0.0,0.0,16,0.00,,,0.00,Wunderground v.1.15,2013-04-19 00:33:00,
2013-04-18 17:39:00,58.6,12.5,30.27,East,101,0.0,0.0,16,0.00,,,0.00,Wunderground v.1.15,2013-04-19 00:39:00,
2013-04-18 17:45:00,58.5,12.4,30.27,NE,34,0.0,0.0,16,0.00,,,0.00,Wunderground v.1.15,2013-04-19 00:45:00,
2013-04-18 17:50:00,58.8,12.6,30.27,ENE,77,0.0,0.0,16,0.00,,,0.00,Wunderground v.1.15,2013-04-19 00:50:00,
2013-04-18 17:56:00,58.7,12.6,30.27,WSW,248,0.0,0.0,16,0.00,,,0.00,Wunderground v.1.15,2013-04-19 00:56:00,
2013-04-18 18:02:00,59.1,12.9,30.27,ENE,60,0.0,0.0,16,0.00,,,0.00,Wunderground v.1.15,2013-04-19 01:02:00,
2013-04-18 18:08:00,58.5,12.4,30.27,NW,312,0.0,0.0,16,0.00,,,0.00,Wunderground v.1.15,2013-04-19 01:08:00,
2013-04-18 18:14:00,58.5,12.4,30.27,NE,49,0.0,0.0,16,0.00,,,0.00,Wunderground v.1.15,2013-04-19 01:14:00,
2013-04-18 18:19:00,58.3,12.2,30.27,NE,37,0.0,0.0,16,0.00,,,0.00,Wunderground v.1.15,2013-04-19 01:19:00,
2013-04-18 18:25:00,58.3,12.2,30.27,NNE,25,0.0,0.0,16,0.00,,,0.00,Wunderground v.1.15,2013-04-19 01:25:00,
2013-04-18 18:31:00,58.4,12.3,30.27,ENE,77,0.0,0.0,16,0.00,,,0.00,Wunderground v.1.15,2013-04-19 01:31:00,
2013-04-18 18:36:00,58.4,12.3,30.26,NE,39,0.0,0.0,16,0.00,,,0.00,Wunderground v.1.15,2013-04-19 01:36:00,
2013-04-18 18:42:00,58.4,12.3,30.27,East,91,0.0,0.0,16,0.00,,,0.00,Wunderground v.1.15,2013-04-19 01:42:00,
2013-04-18 18:48:00,58.2,12.1,30.27,North,354,0.0,0.0,16,0.00,,,0.00,Wunderground v.1.15,2013-04-19 01:48:00,
2013-04-18 18:54:00,58.1,13.4,30.26,ENE,63,0.0,0.0,17,0.00,,,0.00,Wunderground v.1.15,2013-04-19 01:54:00,
2013-04-18 18:59:00,58.1,13.4,30.26,NE,37,0.0,0.0,17,0.00,,,0.00,Wunderground v.1.15,2013-04-19 01:59:00,
2013-04-18 19:05:00,58.0,13.4,30.26,ENE,78,0.0,0.0,17,0.00,,,0.00,Wunderground v.1.15,2013-04-19 02:05:00,
2013-04-18 19:11:00,57.7,13.1,30.26,ENE,73,0.0,0.0,17,0.00,,,0.00,Wunderground v.1.15,2013-04-19 02:11:00,
2013-04-18 19:17:00,57.3,12.8,30.26,East,91,0.0,0.0,17,0.00,,,0.00,Wunderground v.1.15,2013-04-19 02:17:00,
2013-04-18 19:22:00,56.9,13.8,30.26,ENE,75,0.0,0.0,18,0.00,,,0.00,Wunderground v.1.15,2013-04-19 02:22:00,
2013-04-18 19:28:00,56.3,13.3,30.26,ENE,73,0.0,0.0,18,0.00,,,0.00,Wunderground v.1.15,2013-04-19 02:28:00,
2013-04-18 19:34:00,55.5,13.8,30.26,East,94,0.0,0.0,19,0.00,,,0.00,Wunderground v.1.15,2013-04-19 02:34:00,
2013-04-18 19:39:00,55.0,13.4,30.26,ESE,115,0.0,0.0,19,0.00,,,0.00,Wunderground v.1.15,2013-04-19 02:39:00,
2013-04-18 19:45:00,54.5,14.2,30.26,ESE,114,0.0,0.0,20,0.00,,,0.00,Wunderground v.1.15,2013-04-19 02:45:00,
2013-04-18 19:51:00,54.0,13.8,30.26,ESE,114,0.0,0.0,20,0.00,,,0.00,Wunderground v.1.15,2013-04-19 02:51:00,
2013-04-18 19:57:00,53.8,13.6,30.26,ESE,114,0.0,0.0,20,0.00,,,0.00,Wunderground v.1.15,2013-04-19 02:57:00,
2013-04-18 20:03:00,53.9,13.7,30.27,ESE,115,0.0,0.0,20,0.00,,,0.00,Wunderground v.1.15,2013-04-19 03:03:00,
2013-04-18 20:08:00,53.2,14.2,30.27,ESE,115,0.0,0.0,21,0.00,,,0.00,Wunderground v.1.15,2013-04-19 03:08:00,
2013-04-18 20:14:00,52.8,13.9,30.27,SE,142,0.0,0.0,21,0.00,,,0.00,Wunderground v.1.15,2013-04-19 03:14:00,
2013-04-18 20:20:00,52.8,13.9,30.27,SSE,155,0.0,0.0,21,0.00,,,0.00,Wunderground v.1.15,2013-04-19 03:20:00,
2013-04-18 20:25:00,52.4,13.5,30.28,West,281,0.0,0.0,21,0.00,,,0.00,Wunderground v.1.15,2013-04-19 03:25:00,
2013-04-18 20:31:00,51.8,14.1,30.28,West,278,0.0,0.0,22,0.00,,,0.00,Wunderground v.1.15,2013-04-19 03:31:00,
2013-04-18 20:37:00,51.0,13.4,30.28,WSW,245,0.0,0.0,22,0.00,,,0.00,Wunderground v.1.15,2013-04-19 03:37:00,
2013-04-18 20:42:00,51.1,14.5,30.29,WSW,244,0.0,0.0,23,0.00,,,0.00,Wunderground v.1.15,2013-04-19 03:42:00,
2013-04-18 20:48:00,50.8,14.3,30.29,SW,235,0.0,0.0,23,0.00,,,0.00,Wunderground v.1.15,2013-04-19 03:48:00,
2013-04-18 20:54:00,50.9,14.4,30.29,WSW,248,0.0,0.0,23,0.00,,,0.00,Wunderground v.1.15,2013-04-19 03:54:00,
2013-04-18 21:00:00,51.2,14.6,30.29,WSW,247,0.0,0.0,23,0.00,,,0.00,Wunderground v.1.15,2013-04-19 04:00:00,
2013-04-18 21:01:00,51.3,13.7,30.29,WSW,246,0.0,0.0,22,0.00,,,0.00,Wunderground v.1.15,2013-04-19 04:01:00,
2013-04-18 21:02:00,51.4,13.8,30.29,WSW,246,0.0,0.0,22,0.00,,,0.00,Wunderground v.1.15,2013-04-19 04:02:00,
2013-04-18 21:05:00,51.5,13.8,30.29,WSW,246,0.0,0.0,22,0.00,,,0.00,Wunderground v.1.15,2013-04-19 04:05:00,
2013-04-18 21:09:00,51.4,13.8,30.29,WSW,247,0.0,0.0,22,0.00,,,0.00,Wunderground v.1.15,2013-04-19 04:09:00,
2013-04-18 21:13:00,51.0,13.4,30.29,WSW,246,0.0,0.0,22,0.00,,,0.00,Wunderground v.1.15,2013-04-19 04:13:00,
2013-04-18 21:18:00,50.9,14.4,30.29,SSW,207,0.0,0.0,23,0.00,,,0.00,Wunderground v.1.15,2013-04-19 04:18:00,
2013-04-18 21:24:00,51.3,13.7,30.29,SSW,202,0.0,0.0,22,0.00,,,0.00,Wunderground v.1.15,2013-04-19 04:24:00,
2013-04-18 21:29:00,51.3,13.7,30.29,SSW,202,0.0,0.0,22,0.00,,,0.00,Wunderground v.1.15,2013-04-19 04:29:00,
2013-04-18 21:35:00,51.1,14.5,30.29,SSW,209,0.0,0.0,23,0.00,,,0.00,Wunderground v.1.15,2013-04-19 04:35:00,
2013-04-18 21:41:00,50.7,14.2,30.29,SSW,209,0.0,0.0,23,0.00,,,0.00,Wunderground v.1.15,2013-04-19 04:41:00,
2013-04-18 21:47:00,50.5,14.0,30.28,SSW,209,0.0,0.0,23,0.00,,,0.00,Wunderground v.1.15,2013-04-19 04:47:00,
2013-04-18 21:53:00,50.1,13.7,30.29,SW,224,0.0,0.0,23,0.00,,,0.00,Wunderground v.1.15,2013-04-19 04:53:00,
2013-04-18 21:58:00,49.5,14.1,30.28,SW,224,0.0,0.0,24,0.00,,,0.00,Wunderground v.1.15,2013-04-19 04:58:00,
2013-04-18 22:04:00,48.5,14.2,30.28,WSW,240,0.0,0.0,25,0.00,,,0.00,Wunderground v.1.15,2013-04-19 05:04:00,
2013-04-18 22:10:00,48.0,14.7,30.28,WSW,256,0.0,0.0,26,0.00,,,0.00,Wunderground v.1.15,2013-04-19 05:10:00,
2013-04-18 22:15:00,47.2,15.7,30.28,WSW,248,0.0,0.0,28,0.00,,,0.00,Wunderground v.1.15,2013-04-19 05:15:00,
2013-04-18 22:21:00,46.8,15.4,30.28,WSW,248,0.0,0.0,28,0.00,,,0.00,Wunderground v.1.15,2013-04-19 05:21:00,
2013-04-18 22:26:00,47.2,15.7,30.29,WSW,242,0.0,0.0,28,0.00,,,0.00,Wunderground v.1.15,2013-04-19 05:26:00,
2013-04-18 22:32:00,45.4,14.9,30.29,SW,224,0.0,0.0,29,0.00,,,0.00,Wunderground v.1.15,2013-04-19 05:32:00,
2013-04-18 22:38:00,44.9,15.3,30.29,SW,223,0.0,0.0,30,0.00,,,0.00,Wunderground v.1.15,2013-04-19 05:38:00,
2013-04-18 22:43:00,45.1,16.2,30.29,SW,222,0.0,0.0,31,0.00,,,0.00,Wunderground v.1.15,2013-04-19 05:43:00,
2013-04-18 22:49:00,45.1,17.0,30.29,SW,233,0.0,0.0,32,0.00,,,0.00,Wunderground v.1.15,2013-04-19 05:49:00,
2013-04-18 22:55:00,45.1,20.3,30.29,SW,226,0.0,0.0,37,0.00,,,0.00,Wunderground v.1.15,2013-04-19 05:55:00,
2013-04-18 23:00:00,45.1,22.8,30.29,WSW,237,0.0,0.0,41,0.00,,,0.00,Wunderground v.1.15,2013-04-19 06:00:00,
2013-04-18 23:06:00,45.3,23.5,30.29,WSW,250,0.0,0.0,42,0.00,,,0.00,Wunderground v.1.15,2013-04-19 06:06:00,
2013-04-18 23:12:00,45.1,20.3,30.29,WSW,244,0.0,0.0,37,0.00,,,0.00,Wunderground v.1.15,2013-04-19 06:12:00,
2013-04-18 23:17:00,45.2,18.5,30.28,SW,227,0.0,0.0,34,0.00,,,0.00,Wunderground v.1.15,2013-04-19 06:17:00,
2013-04-18 23:23:00,45.1,17.7,30.28,SW,221,0.0,0.0,33,0.00,,,0.00,Wunderground v.1.15,2013-04-19 06:23:00,
2013-04-18 23:29:00,44.9,17.5,30.28,SW,233,0.0,0.0,33,0.00,,,0.00,Wunderground v.1.15,2013-04-19 06:29:00,
2013-04-18 23:34:00,44.5,17.1,30.28,SW,230,0.0,0.0,33,0.00,,,0.00,Wunderground v.1.15,2013-04-19 06:34:00,
2013-04-18 23:40:00,44.0,17.4,30.28,SW,224,0.0,0.0,34,0.00,,,0.00,Wunderground v.1.15,2013-04-19 06:40:00,
2013-04-18 23:46:00,44.3,18.3,30.28,SW,221,0.0,0.0,35,0.00,,,0.00,Wunderground v.1.15,2013-04-19 06:46:00,
2013-04-18 23:52:00,44.6,19.9,30.28,SW,221,0.0,0.0,37,0.00,,,0.00,Wunderground v.1.15,2013-04-19 06:52:00,
2013-04-18 23:58:00,44.5,21.0,30.29,SW,234,0.0,0.0,39,0.00,,,0.00,Wunderground v.1.15,2013-04-19 06:58:00,